Location: St Paul
(33.4390°N, 83.7350°W)
Time: 06:45:29
(UTC-04:00)

Cosmos 1470 - Pass Details

Date: 06 October 2017
Orbit: 523 x 544 km, 82.5° (Epoch: 19 October)

Event Time Altitude Azimuth Distance (km) Brightness Sun altitude
Rises 19:38:16 0° 170° (S) 2,686 6.3 -6.2°
Reaches altitude 10° 19:40:29 10° 163° (SSE) 1,800 5.3 -6.7°
Maximum altitude 19:44:13 41° 92° (E) 797 3.2 -7.5°
Drops below altitude 10° 19:47:58 10° 22° (NNE) 1,816 5.2 -8.3°
Sets 19:50:13 0° 15° (NNE) 2,712 6.2 -8.7°
